マクノート彗星

P/2004 R1 ( McNaught )

English version
Home page
Updated on January 15, 2005

---------------------------------------------------------------------

・ プロフィール

発見日 2004年9月2日
発見光度 17.6等
発見者 R. H. McNaught (Siding Spring)

・ 軌道要素

T 2004 Aug. 30.2125 TT                                  MPC
q   0.988497             (2000.0)            P               Q
n   0.1795045      Peri.    0.6065      +0.4478832      +0.8908027
a   3.112331       Node   296.0036      -0.8206720      +0.3755820
e   0.682393       Incl.    4.8906      -0.3548212      +0.2557513
P   5.49
>From 44 observations 2004 Sept. 2-Nov. 9.

・ 星図

・ 光度変化

        m1 = 18.5 + 5 logΔ + 15.0 log r

---------------------------------------------------------------------

軌道要素はM.P.E.C. 2004-V72に掲載されたものです。
星図は StellaNavigator Ver.2.0 for Windows (アストロアーツ 編著 / アスキー出版局刊) で作成したものです。
光度グラフはComet for Windowsで作成したものです。

---------------------------------------------------------------------

Copyright(C) Seiichi Yoshida (comet@aerith.net). All rights reserved.